De Queen, AR

3:50 AM CDT on March 28, 2020 (GMT -0500)
Helms Sevier County

Weather History for KDEQ - December, 2019

Change the Weather History Date:

Thursday, December 26, 2019

  Actual Average Record
Temperature  
Mean Temperature 57 °F -  
Max Temperature 70 °F - 77 °F (2015)
Min Temperature 44 °F - 4 °F (1983)
Degree Days  
Heating Degree Days 8    
Growing Degree Days 7 (Base 50)    
Moisture  
Dew Point 49 °F    
Average Humidity 89    
Maximum Humidity 97    
Minimum Humidity 61    
Precipitation  
Precipitation 0.00 in - 2.75 in (1987)
Sea Level Pressure  
Sea Level Pressure 30.06 in    
Wind  
Wind Speed 1 mph ()    
Max Wind Speed 5 mph    
Max Gust Speed -    
Visibility 4.6 miles    
Events Fog    
T = Trace of Precipitation, MM = Missing Value Source: Averaged Metar Reports

Daily Weather History Graph

Daily Weather History Graph

Search for Another Location

Airport or City:

Astronomy

Dec. 26, 2019 Rise Set
Actual Time 7:21 AM CST 5:14 PM CST
Civil Twilight 6:53 AM CST 5:42 PM CST
Nautical Twilight 6:22 AM CST 6:14 PM CST
Astronomical Twilight 5:51 AM CST 6:44 PM CST
Moon 7:45 AM CST (12/26) 5:50 PM CST (12/26)
Length of Visible Light 10h 49m
Length of Day
9h 53m
New Moon, 0% of the Moon is Illuminated
Dec 26
New Moon
Jan 2
First Quarter
Jan 10
Full
Jan 17
Last Quarter
Jan 24
New

Hourly Weather History & Observations

Time (CST) Temp. Windchill Dew Point Humidity Pressure Visibility Wind Dir Wind Speed Gust Speed Precip Events Conditions
12:53 AM 48.9 °F - 46.9 °F 93% 29.99 in 9.0 mi Calm Calm - N/A   Overcast
1:53 AM 46.9 °F - 44.1 °F 90% 30.00 in 10.0 mi Calm Calm - N/A   Partly Cloudy
2:22 AM 45.0 °F - 43.0 °F 93% 30.01 in 1.8 mi Calm Calm - N/A   Clear
2:25 AM 45.0 °F - 43.0 °F 93% 30.01 in 0.8 mi Calm Calm - N/A   Mist
2:53 AM 45.0 °F - 43.0 °F 93% 30.01 in 1.2 mi Calm Calm - N/A   Partly Cloudy
2:56 AM 45.0 °F - 43.0 °F 93% 30.02 in 4.0 mi Calm Calm - N/A   Partly Cloudy
3:10 AM 45.0 °F - 42.1 °F 90% 30.02 in 1.2 mi Calm Calm - N/A   Mostly Cloudy
3:16 AM 44.1 °F - 42.1 °F 93% 30.02 in 0.2 mi Calm Calm - N/A Fog Fog
3:28 AM 44.1 °F - 42.1 °F 93% 30.02 in 0.5 mi Calm Calm - N/A Fog Fog
4:23 AM 45.0 °F 43.5 °F 44.1 °F 97% 30.02 in 1.5 mi ENE 3.5 mph - N/A   Overcast
4:53 AM 46.9 °F - 46.0 °F 97% 30.02 in 7.0 mi Calm Calm - N/A   Overcast
5:34 AM 48.9 °F - 46.9 °F 93% 30.02 in 7.0 mi East 3.5 mph - N/A   Overcast
5:53 AM 48.9 °F - 46.9 °F 93% 30.02 in 7.0 mi Calm Calm - N/A   Overcast
7:20 AM 46.9 °F - 46.0 °F 97% 30.04 in 0.2 mi Calm Calm - N/A Fog Fog
7:51 AM 48.2 °F - 46.4 °F 93% 30.05 in 1.0 mi East 3.5 mph - N/A   Overcast
7:52 AM 48.0 °F - 46.0 °F 93% 30.05 in 1.2 mi East 3.5 mph - N/A   Overcast
7:59 AM 48.0 °F - 46.9 °F 96% 30.06 in 3.0 mi Calm Calm - N/A   Overcast
8:53 AM 55.0 °F - 51.1 °F 86% 30.07 in 7.0 mi Calm Calm - N/A   Clear
9:44 AM 59.0 °F - 54.0 °F 83% 30.09 in 10.0 mi South 3.5 mph - N/A   Mostly Cloudy
9:53 AM 60.1 °F - 54.0 °F 80% 30.09 in 10.0 mi Calm Calm - N/A   Mostly Cloudy
10:35 AM 61.0 °F - 54.0 °F 78% 30.10 in 10.0 mi Calm Calm - N/A   Overcast
12:53 PM 66.9 °F - 55.0 °F 66% 30.04 in 10.0 mi Calm Calm - N/A   Clear
1:53 PM 68.0 °F - 55.9 °F 65% 30.03 in 10.0 mi Variable 4.6 mph - N/A   Scattered Clouds
3:53 PM 70.0 °F - 55.9 °F 61% 30.04 in 10.0 mi Calm Calm - N/A   Clear
4:53 PM 66.9 °F - 55.0 °F 66% 30.05 in 10.0 mi Calm Calm - N/A   Clear
5:53 PM 59.0 °F - 54.0 °F 83% 30.06 in 10.0 mi ESE 3.5 mph - N/A   Mostly Cloudy
6:53 PM 55.9 °F - 52.0 °F 87% 30.08 in 10.0 mi East 3.5 mph - N/A   Clear
7:45 PM 54.0 °F - 52.0 °F 93% 30.10 in 1.5 mi Calm Calm - N/A   Clear
7:53 PM 53.1 °F - 50.0 °F 89% 30.10 in 1.5 mi Calm Calm - N/A   Clear
8:05 PM 52.0 °F - 50.0 °F 93% 30.10 in 3.0 mi Calm Calm - N/A   Clear
8:09 PM 52.0 °F - 50.0 °F 93% 30.10 in 1.8 mi Calm Calm - N/A   Partly Cloudy
8:20 PM 52.0 °F - 50.0 °F 93% 30.10 in 2.0 mi Calm Calm - N/A   Mostly Cloudy
8:50 PM 53.6 °F - 50.0 °F 88% 30.11 in 2.0 mi Calm Calm - N/A   Partly Cloudy
9:14 PM 51.1 °F - 48.9 °F 92% 30.11 in 3.0 mi Calm Calm - N/A   Partly Cloudy
9:41 PM 50.0 °F - 48.9 °F 96% 30.12 in 2.5 mi East 3.5 mph - N/A   Partly Cloudy
10:13 PM 50.0 °F - 48.0 °F 93% 30.12 in 1.0 mi Calm Calm - N/A   Clear
10:20 PM 48.9 °F - 48.0 °F 97% 30.12 in 0.5 mi Calm Calm - N/A Fog Fog
10:38 PM 51.1 °F - 48.9 °F 92% 30.13 in 1.0 mi Calm Calm - N/A   Scattered Clouds
11:53 PM 52.0 °F - 48.9 °F 89% 30.12 in 7.0 mi Calm Calm - N/A   Overcast